Main page
METAR-TAF:

METAR-TAF

Airports :

Ula, Norway

Oil platform

latitude: 59-06-39N, longitude: 2-50-45E, elevation: 0 m

Current weather observation

The report was made 34 minutes ago, at 13:20 UTC
Wind 22 kt from the West/Southwest
Temperature 14°C
Humidity 72%
Pressure 1003 hPa
Visibility 10 km or more

METAR: ENLA 241320Z AUTO 25022KT 9999NDV FEW021/// 14/09 Q1003 W///S4

Time: 15:54 (13:54 UTC)


TAF: missing

Weather observations and forecasts of more than 4000 airports (METAR and TAF reports).

The available stations are represented by yellow and red dots on the map.

Hover mouse over dot to see the name of the station.

Then click to see weather observations and forecasts.

To change the map : click on the green buttons with a black cross to zoom in, on the green button with a dash to zoom out, or on the green arrows for adjacent maps.


METAR-TAF: